Regional Weather Roundup
Issued by NWS Newport/Morehead, NC

Current Version | Previous Version | Text Only | Print | Product List | Glossary Off
Versions: 1 2 3 4 5 6 7 8 9 10 11 12 13 14 15 16 17 18 19 20 21 22 23 24 25 26 27 28 29 30 31 32 33 34 35 36 37 38 39 40 41 42 43 44 45 46 47 48 49 50
000 ASUS42 KMHX 270025 RWRMHX WEATHER ROUNDUP FOR EASTERN NORTH CAROLINA NATIONAL WEATHER SERVICE NEWPORT/MOREHEAD CITY NC 800 PM EDT THU APR 26 2018 NOTE: "FAIR" INDICATES FEW OR NO CLOUDS BELOW 12,000 FEET WITH NO SIGNIFICANT WEATHER AND/OR OBSTRUCTIONS TO VISIBILITY NCZ015>017-031-032-045>047-102-103-270100- NORTH COAST CITY SKY/WX TMP DP RH WIND PRES REMARKS EDENTON CLOUDY 64 59 83 E8 29.86S ELIZABETH CITY MOCLDY 61 55 81 E9 29.88S KITTY HAWK FAIR 55 49 80 CALM 29.88R MANTEO FAIR 57 50 77 E7 29.89R $$ NCZ045>047-081-094-103-104-270100- CENTRAL COAST CITY SKY/WX TMP DP RH WIND PRES REMARKS FRISCO FAIR 69 64 84 SE8 29.86F $$ NCZ095-097-098-100-101-270100- SOUTHERN COAST CITY SKY/WX TMP DP RH WIND PRES REMARKS BEAUFORT FAIR 68 62 81 SW7 29.86R CEDAR ISLAND NOT AVBL JACKSONVILLE FAIR 69 59 70 S7 29.84R PINEY ISLAND NOT AVBL WILMINGTON FAIR 68 56 65 S8 29.83S $$ NCZ011>013-027>030-043-044-078>080-089-090>093-098-270100- COASTAL PLAIN CITY SKY/WX TMP DP RH WIND PRES REMARKS AHOSKIE FAIR 64 60 87 E3 29.85S CLINTON FAIR 70 59 66 S5 29.83R ELIZABETHTOWN FAIR 67 57 69 MISG 29.83R GOLDSBORO CLOUDY 71 58 62 SE6 29.80S GREENVILLE FAIR 70 61 73 E5 29.86R HAVELOCK MOCLDY 70 62 76 S7 29.86 KENANSVILLE FAIR 70 57 64 S3 29.83R KINSTON FAIR 72 57 60 S7 29.83S NEW BERN FAIR 68 57 68 S5 29.85R RICHLANDS FAIR 69 57 65 S9 29.84R ROCKY MOUNT CLOUDY 69 59 70 CALM 29.82S WASHINGTON FAIR 67 61 82 CALM 29.84R WHITEVILLE FAIR 68 56 64 CALM 29.82S $$ AMZ130-135-150-152-154-156-158-170-250-252-270-ANZ085-086-088-633-658-670-270100- MARINE OBSERVATIONS STATION/POSITION TIME TEMP WIND PRES WAVE SWELL AIR SEA DIR/SP/G HT/PER HT/PER (UTC) (F) (DEG/KT/KT) (MB) (FT/S) (FT/S) CHESAPEAKE LIGHT NOT AVBL 64 E VA BEACH 2350 54 55 110/ 8/ 8 1012.9 7/10 7/10 DUCK 0000 56 53 100/ 10/ 11 1011.5 2 E DUCK 0000 55 N/A 4/10 2/11 OREGON INLET 0000 57 65 70/ 5/ 8 1011.8 13E OREGON INLT 2348 56 N/A 5/ 9 5/ 9 HATTERAS CG 0000 69 69 130/ 6/ 7 1011.1 DIAMOND BUOY 0010 72 71 160/ 14/ 17 1011.9 CAPE LOOKOUT 0000 220/ 7/ 10 1011.5 BEAUFORT LAB 0000 68 65 210/ 5/ 8 1011.2 30 SE NEW RVR IN 0008 69 68 210/ 4/ 6 1009.3 30 SE NEW RVR IN 0000 68 N/A 4/10 2/11 27 SE WRIGHTSVLE 0008 68 67 200/ 6/ 8 1010.8 5 SE WRIGHTSVLE 0008 67 65 190/ 6/ 10 1010.2 225 S CAPE HAT 0010 73 74 180/ 12/ 14 1013.6 41 SE CHARLESTON 0010 70 230/ 6/ 8 1010.5 $$

USA.gov is the U.S. government's official web portal to all federal, state and local government web resources and services.